This demonstration page uses our WeatherBlox Daily Observations layout. Learn more.

Hourly Observations for November 1, 2019

Temp ( °F °C ) Dew Point ( °F °C ) Humidity (%) Winds ( mph kmh ) Pressure ( in mb ) Visibility ( mi km ) Precip ( " mm )
12:15 am 00:15 Cloudy 50 10 36 2 58 58 NW 23 37 29.83 1010 10 16.09344 0 0
12:35 am 00:35 Cloudy 50 10 36 2 58 58 NW 22 35 29.85 1011 10 16.09344 0 0
12:55 am 00:55 Mostly Cloudy 48 9 34 1 58 58 NW 31 50 29.85 1011 10 16.09344 0 0
1:15 am 01:15 Clear 46 8 34 1 62 62 WNW 29 46 29.91 1013 10 16.09344 0 0
1:35 am 01:35 Clear 46 8 34 1 62 62 WNW 26 43 29.94 1014 10 16.09344 0 0
1:55 am 01:55 Clear 45 7 32 0 61 61 NW 25 41 29.94 1014 10 16.09344 0 0
2:15 am 02:15 Clear 45 7 32 0 61 61 NW 30 48 29.97 1015 10 16.09344 0 0
2:35 am 02:35 Clear 43 6 32 0 66 66 WNW 31 50 29.97 1015 10 16.09344 0 0
2:55 am 02:55 Clear 43 6 32 0 66 66 WNW 26 43 29.97 1015 10 16.09344 0 0
3:15 am 03:15 Clear 43 6 32 0 66 66 NW 18 30 30.03 1017 10 16.09344 0 0
3:35 am 03:35 Clear 43 6 32 0 66 66 WNW 22 35 30.03 1017 10 16.09344 0 0
3:55 am 03:55 Clear 43 6 32 0 66 66 WNW 17 28 30.03 1017 10 16.09344 0 0
4:15 am 04:15 Clear 41 5 32 0 70 70 NW 15 24 30.03 1017 10 16.09344 0 0
4:35 am 04:35 Clear 41 5 32 0 70 70 WNW 17 28 30.06 1018 10 16.09344 0 0
4:55 am 04:55 Clear 41 5 32 0 70 70 WNW 14 22 30.06 1018 10 16.09344 0 0
5:15 am 05:15 Clear 41 5 32 0 70 70 NW 18 30 30.09 1019 10 16.09344 0 0
5:35 am 05:35 Clear 41 5 32 0 70 70 WNW 20 31 30.12 1020 10 16.09344 0 0
5:55 am 05:55 Clear 41 5 32 0 70 70 WNW 16 26 30.12 1020 10 16.09344 0 0
6:15 am 06:15 Mostly Cloudy 41 5 32 0 70 70 WNW 17 28 30.12 1020 10 16.09344 0 0
6:35 am 06:35 Mostly Cloudy 41 5 32 0 70 70 NW 24 39 30.12 1020 10 16.09344 0 0
6:55 am 06:55 Partly Cloudy 43 6 32 0 66 66 WNW 23 37 30.15 1021 10 16.09344 0 0
7:15 am 07:15 Partly Cloudy 43 6 32 0 66 66 WNW 18 30 30.15 1021 10 16.09344 0 0
7:35 am 07:35 Mostly Cloudy 43 6 32 0 66 66 Calm 30.18 1022 10 16.09344 0 0
7:55 am 07:55 Cloudy 43 6 32 0 66 66 NW 7 11 30.18 1022 10 16.09344 0 0
8:15 am 08:15 Mostly Cloudy 41 5 32 0 70 70 NW 9 15 30.18 1022 10 16.09344 0 0
8:35 am 08:35 Mostly Cloudy 43 6 32 0 66 66 WNW 15 24 30.18 1022 10 16.09344 0 0
8:55 am 08:55 Partly Cloudy 43 6 32 0 66 66 WNW 15 24 30.21 1023 10 16.09344 0 0
9:15 am 09:15 Sunny 43 6 32 0 66 66 NW 18 30 30.21 1023 10 16.09344 0 0
9:35 am 09:35 Mostly Cloudy 45 7 32 0 61 61 NW 13 20 30.24 1024 10 16.09344 0 0
9:55 am 09:55 Cloudy 45 7 32 0 61 61 NW 18 30 30.24 1024 10 16.09344 0 0
10:15 am 10:15 Mostly Cloudy 45 7 32 0 61 61 NW 21 33 30.24 1024 10 16.09344 0 0
10:35 am 10:35 Partly Cloudy 45 7 32 0 61 61 NW 20 31 30.24 1024 10 16.09344 0 0
11:15 am 11:15 Mostly Cloudy 46 8 32 0 57 57 WNW 17 28 30.27 1025 10 16.09344 0 0
12:15 pm 12:15 Partly Cloudy 46 8 32 0 57 57 NW 18 30 30.3 1026 10 16.09344 0 0
12:35 pm 12:35 Partly Cloudy 46 8 32 0 57 57 W 15 24 30.3 1026 10 16.09344 0 0
12:55 pm 12:55 Mostly Cloudy 46 8 32 0 57 57 NW 15 24 30.3 1026 10 16.09344 0 0
1:15 pm 13:15 Mostly Cloudy 48 9 32 0 54 54 NW 13 20 30.3 1026 10 16.09344 0 0
1:35 pm 13:35 Partly Cloudy 50 10 32 0 50 50 NW 15 24 30.27 1025 10 16.09344 0 0
1:55 pm 13:55 Sunny 50 10 32 0 50 50 WNW 12 19 30.27 1025 10 16.09344 0 0
2:15 pm 14:15 Sunny 50 10 32 0 50 50 NW 13 20 30.27 1025 10 16.09344 0 0
2:35 pm 14:35 Sunny 50 10 32 0 50 50 NW 13 20 30.27 1025 10 16.09344 0 0
2:55 pm 14:55 Sunny 50 10 32 0 50 50 NW 15 24 30.27 1025 10 16.09344 0 0
3:15 pm 15:15 Sunny 50 10 32 0 50 50 NNW 9 15 30.27 1025 10 16.09344 0 0
3:35 pm 15:35 Sunny 50 10 32 0 50 50 NW 12 19 30.27 1025 10 16.09344 0 0
3:55 pm 15:55 Sunny 52 11 32 0 47 47 NW 10 17 30.3 1026 10 16.09344 0 0
4:15 pm 16:15 Sunny 50 10 32 0 50 50 NNW 14 22 30.3 1026 10 16.09344 0 0
4:35 pm 16:35 Sunny 50 10 32 0 50 50 NW 13 20 30.3 1026 10 16.09344 0 0
4:55 pm 16:55 Sunny 50 10 32 0 50 50 NW 12 19 30.3 1026 10 16.09344 0 0
5:15 pm 17:15 Sunny 50 10 30 -1 47 47 NNW 12 19 30.3 1026 10 16.09344 0 0
5:35 pm 17:35 Sunny 48 9 30 -1 50 50 NNW 10 17 30.3 1026 10 16.09344 0 0
5:55 pm 17:55 Sunny 46 8 30 -1 53 53 NNW 6 9 30.3 1026 10 16.09344 0 0
6:15 pm 18:15 Clear 46 8 30 -1 53 53 N 5 7 30.3 1026 10 16.09344 0 0
6:35 pm 18:35 Clear 45 7 32 0 61 61 N 3 6 30.3 1026 10 16.09344 0 0
6:55 pm 18:55 Clear 45 7 32 0 61 61 NNW 5 7 30.33 1027 10 16.09344 0 0
7:15 pm 19:15 Clear 43 6 32 0 66 66 Calm 30.33 1027 10 16.09344 0 0
7:35 pm 19:35 Clear 41 5 32 0 70 70 Calm 30.33 1027 10 16.09344 0 0
7:55 pm 19:55 Clear 43 6 32 0 66 66 Calm 30.33 1027 10 16.09344 0 0
8:15 pm 20:15 Clear 41 5 32 0 70 70 Calm 30.33 1027 10 16.09344 0 0
8:35 pm 20:35 Clear 37 3 34 1 87 87 NW 3 6 30.33 1027 10 16.09344 0 0
8:55 pm 20:55 Clear 37 3 34 1 87 87 N 3 6 30.33 1027 10 16.09344 0 0
9:15 pm 21:15 Clear 39 4 32 0 75 75 N 5 7 30.33 1027 10 16.09344 0 0
9:35 pm 21:35 Clear 39 4 32 0 75 75 NNE 5 7 30.33 1027 10 16.09344 0 0
9:55 pm 21:55 Clear 37 3 32 0 81 81 N 5 7 30.33 1027 10 16.09344 0 0
10:15 pm 22:15 Clear 39 4 32 0 75 75 Calm 30.36 1028 10 16.09344 0 0
10:35 pm 22:35 Clear 37 3 32 0 81 81 NNW 3 6 30.36 1028 10 16.09344 0 0
10:55 pm 22:55 Clear 36 2 34 1 93 93 NW 3 6 30.36 1028 10 16.09344 0 0
11:15 pm 23:15 Clear 34 1 32 0 93 93 NW 5 7 30.36 1028 10 16.09344 0 0
11:35 pm 23:35 Clear 34 1 34 1 100 100 NNW 5 7 30.33 1027 10 16.09344 0 0
11:55 pm 23:55 Clear 34 1 32 0 93 93 NNW 3 6 30.33 1027 10 16.09344 0 0

Powered by AerisWeather